Weather History for MROC - September, 2011

Change the Weather History Date:

Friday, September 9, 2011

  Actual Average Record
Temperature  
Mean Temperature 74 °F -  
Max Temperature 83 °F 79 °F 86 °F (2005)
Min Temperature 65 °F 63 °F 60 °F (1997)
Cooling Degree Days 9    
Growing Degree Days 24 (Base 50)    
Moisture  
Dew Point 69 °F    
Average Humidity 88    
Maximum Humidity 100    
Minimum Humidity 57    
Precipitation  
Precipitation 0.00 in 0.46 in - ()
Sea Level Pressure  
Sea Level Pressure 29.99 in    
Wind  
Wind Speed 4 mph ()    
Max Wind Speed 14 mph    
Max Gust Speed -    
Visibility 7.7 miles    
Events Rain , Thunderstorm    
Averages and records for this station are not official NWS values.
T = Trace of Precipitation, MM = Missing Value Source: Averaged Metar Reports

Daily Weather History Graph

Daily Weather History Graph

Search for Another Location

Airport or City:

Trip Planner

Search our weather history database for the weather conditions in past years. The results will help you decide how hot, cold, wet, or windy it might be!

Date:

Astronomy

Sep. 09, 2011 Rise Set
Actual Time 5:27 AM CST 5:41 PM CST
Civil Twilight 5:06 AM CST 6:02 PM CST
Nautical Twilight 4:41 AM CST 6:26 PM CST
Astronomical Twilight 4:16 AM CST 6:51 PM CST
Moon 3:50 PM CST (9/9) 3:08 AM CST (9/9)
Length of Visible Light 12h 56m
Length of Day
12h 14m
Waxing Gibbous, 93% of the Moon is Illuminated
Sep 9
Waxing Gibbous
Sep 12
Full
Sep 20
Last Quarter
Sep 27
New
Oct 3
First Quarter

Hourly Weather History & Observations

Time (CST) Temp. Heat Index Dew Point Humidity Pressure Visibility Wind Dir Wind Speed Gust Speed Precip Events Conditions
12:00 AM 68 °F - 68 °F 100% 29.87 in 12 mi East 2.3 mph - -   Haze
12:00 AM 68.0 °F - 68.0 °F 100% 30.05 in 6.2 mi East 2.3 mph - N/A   Mostly Cloudy
1:00 AM 68.0 °F - 68.0 °F 100% 30.04 in 6.2 mi ENE 2.3 mph - N/A   Mostly Cloudy
2:00 AM 68.0 °F - 68.0 °F 100% 30.03 in 6.2 mi NE 4.6 mph - N/A   Mostly Cloudy
3:00 AM 66 °F - 66 °F 100% 29.87 in 12 mi ENE 4.6 mph - -  
3:00 AM 66.2 °F - 66.2 °F 100% 30.02 in 6.2 mi ENE 4.6 mph - N/A   Unknown
4:00 AM 66.2 °F - 66.2 °F 100% 30.02 in 6.2 mi East 4.6 mph - N/A   Unknown
5:00 AM 66.2 °F - 64.4 °F 94% 30.02 in - East 4.6 mph - N/A   Clear
6:00 AM 68 °F - 64 °F 85% 29.88 in 12 mi East 1.2 mph - -   Scattered Clouds
6:00 AM 68.0 °F - 64.4 °F 88% 30.03 in 6.2 mi East 1.2 mph - N/A   Mostly Cloudy
7:00 AM 68.0 °F - 66.2 °F 94% 30.06 in - Calm Calm - N/A   Clear
8:00 AM 75.2 °F - 64.4 °F 69% 30.07 in - East 6.9 mph - N/A   Clear
9:00 AM 77 °F - 64 °F 57% 29.92 in 12 mi East 3.5 mph - -   Partly Cloudy
9:00 AM 77.0 °F - 64.4 °F 65% 30.08 in - East 3.5 mph - N/A   Clear
10:00 AM 80.6 °F 82.3 °F 64.4 °F 58% 30.06 in - East 3.5 mph - N/A   Clear
10:45 AM 80.6 °F 83.2 °F 68.0 °F 65% 30.05 in 6.2 mi WSW 8.1 mph - N/A   Scattered Clouds
11:00 AM 80.6 °F 83.9 °F 69.8 °F 70% 30.04 in 6.2 mi SW 10.4 mph - N/A   Scattered Clouds
12:00 PM 81 °F - 72 °F 66% 29.83 in 12 mi WSW 10.4 mph - -   Partly Cloudy
12:00 PM 80.6 °F 84.6 °F 71.6 °F 74% 30.02 in 6.2 mi WSW 10.4 mph - N/A   Scattered Clouds
1:00 PM 80.6 °F 84.6 °F 71.6 °F 74% 29.99 in 6.2 mi WSW 10.4 mph - N/A   Scattered Clouds
2:00 PM 78.8 °F - 71.6 °F 78% 29.97 in 6.2 mi SW 9.2 mph - N/A   Mostly Cloudy
3:00 PM 77 °F - 73 °F 85% 29.81 in 12 mi SW 13.8 mph - - Thunderstorm Thunderstorm
3:00 PM 77.0 °F - 73.4 °F 89% 29.96 in 6.2 mi SW 13.8 mph - N/A Thunderstorm Scattered Clouds
3:40 PM 73.4 °F - 71.6 °F 94% 29.96 in 6.2 mi SW 11.5 mph - N/A Rain Light Rain Showers
4:00 PM 73.4 °F - 73.4 °F 100% 29.96 in 6.2 mi WSW 8.1 mph - N/A Rain Light Rain Showers
5:00 PM 73.4 °F - 73.4 °F 100% 29.99 in 6.2 mi WSW 5.8 mph - N/A Rain Light Rain
6:00 PM 72 °F - 72 °F 98% 29.84 in 9 mi WSW 6.9 mph - -   Partly Cloudy
6:00 PM 71.6 °F - 71.6 °F 100% 29.99 in 6.2 mi WSW 6.9 mph - N/A   Scattered Clouds
7:00 PM 69.8 °F - 69.8 °F 100% 30.01 in 6.2 mi West 4.6 mph - N/A   Mostly Cloudy
8:00 PM 69.8 °F - 69.8 °F 100% 30.03 in 6.2 mi WNW 5.8 mph - N/A   Mostly Cloudy
9:00 PM 70 °F - 70 °F 99% 29.86 in 12 mi Calm Calm - -   Haze
9:00 PM 69.8 °F - 69.8 °F 100% 30.06 in 6.2 mi Calm Calm - N/A   Mostly Cloudy
10:00 PM 69.8 °F - 69.8 °F 100% 30.06 in 6.2 mi Calm Calm - N/A   Mostly Cloudy
11:00 PM 68.0 °F - 68.0 °F 100% 30.05 in 6.2 mi Calm Calm - N/A   Mostly Cloudy